sat.trackr.live / text

‹ back to catalog

YAOGAN-17 01C

NORAD 39241 · 2013-046C

PAYLOAD ACTIVE UNKNOWN

§ Identity

Operator
Country
PRC
Launch date
2013-09-01
Launch site
JSC
Launch vehicle
Mass (kg)
RCS (m²)
2.74

External: N2YO · Heavens-Above · Gunter

§ Orbital elements

Epoch: 2026-05-25T03:10:17.516352Z

Period
107.03 min
Inclination
63.3848°
Eccentricity
0.0425265
Mean motion
13.45475655 rev/d
Perigee alt
771.4 km
Apogee alt
1,406.5 km
Semi-major
7,467.1 km
B*
1.3222e-4
RAAN
149.1250°
Arg perigee
11.3737°
Mean anomaly
349.6539°
Rev number
62,527

§ Raw data

YAOGAN-17 01C1 39241U 13046C   26145.13214718  .00000045  00000+0  13222-3 0  99992 39241  63.3848 149.1250 0425265  11.3737 349.6539 13.45475655625277

JSON: /api/v1/satellites/39241 · /tle

For live sub-satellite position, see the globe view (requires WebGL).

§ Visibility from observer

Set your observer location to see the next 7 days of passes ≥ 10°. The values pass through the URL so the page stays shareable.

No JS? Fill the form by hand. The geolocation button needs JavaScript.